Cas;Teplota [C];Tlak [hPa];Svetlo [lux];Rychlost vetru [km/h];Smer vetru [stupne]
2022-01-14 00:00:02;-2,76;1031,27;7;0;0
2022-01-14 00:01:01;-2,53;1031,31;6;0;0
2022-01-14 00:02:01;-2,61;1031,32;7;0;0
2022-01-14 00:03:01;-2,64;1031,32;6;0;0
2022-01-14 00:04:01;-2,65;1031,29;7;0;0
2022-01-14 00:05:01;-2,88;1031,29;7;0;0
2022-01-14 00:06:01;-2,7;1031,26;7;0;0
2022-01-14 00:07:01;-2,76;1031,28;7;0;0
2022-01-14 00:08:01;-2,68;1031,27;7;0;0
2022-01-14 00:09:01;-2,67;1031,21;6;0;0
2022-01-14 00:10:01;-2,86;1031,15;7;0;0
2022-01-14 00:11:01;-2,82;1031,16;6;0;0
2022-01-14 00:12:01;-2,86;1031,24;6;0;0
2022-01-14 00:13:01;-3,02;1031,18;6;0;0
2022-01-14 00:14:02;-2,7;1031,21;8;0;0
2022-01-14 00:15:01;-2,82;1031,19;8;0;0
2022-01-14 00:16:01;-2,88;1031,19;5;0;0
2022-01-14 00:17:01;-2,79;1031,19;6;0;0
2022-01-14 00:18:01;-2,92;1031,17;6;0;0
2022-01-14 00:19:02;-2,83;1031,19;7;0;0
2022-01-14 00:20:01;-2,99;1031,16;6;0;0
2022-01-14 00:21:01;-2,84;1031,18;6;0;0
2022-01-14 00:22:02;-2,94;1031,17;7;0;0
2022-01-14 00:23:01;-2,78;1031,14;7;0;0
2022-01-14 00:24:01;-2,94;1031,12;7;0;0
2022-01-14 00:25:01;-2,98;1031,06;6;0;0
2022-01-14 00:26:01;-2,87;1031,1;8;0;0
2022-01-14 00:27:01;-2,8;1031,06;7;0;0
2022-01-14 00:28:01;-2,99;1030,98;6;0;0
2022-01-14 00:29:01;-2,97;1031;6;0;0
2022-01-14 00:30:01;-3,02;1031,04;7;0;0
2022-01-14 00:31:02;-2,68;1030,99;6;0;0
2022-01-14 00:32:01;-2,92;1031,04;7;0;0
2022-01-14 00:33:01;-2,96;1031,07;7;0;0
2022-01-14 00:34:01;-2,96;1031,15;6;0;0
2022-01-14 00:35:01;-2,83;1031,12;6;0;0
2022-01-14 00:36:01;-2,94;1031,09;7;0;0
2022-01-14 00:37:02;-2,95;1031,1;7;0;0
2022-01-14 00:38:01;-3,04;1031,15;6;0;0
2022-01-14 00:39:01;-2,91;1031,12;7;0;0
2022-01-14 00:40:01;-2,77;1031,13;6;0;0
2022-01-14 00:41:01;-2,71;1031,09;6;0;0
2022-01-14 00:42:01;-2,9;1031,16;7;0;0
2022-01-14 00:43:01;-2,98;1031,11;6;0;0
2022-01-14 00:44:01;-2,96;1031,11;6;0;0
2022-01-14 00:45:02;-2,91;1031,09;7;0;0
2022-01-14 00:46:01;-3,05;1031,1;6;0;0
2022-01-14 00:47:01;-2,98;1031,03;7;0;0
2022-01-14 00:48:01;-3,04;1030,98;6;0;0
2022-01-14 00:49:01;-2,96;1031,05;7;0;0
2022-01-14 00:50:01;-3,03;1030,97;6;0;0
2022-01-14 00:51:01;-2,82;1030,92;7;0;0
2022-01-14 00:52:01;-2,83;1030,99;6;0;0
2022-01-14 00:53:01;-3,02;1031,01;6;0;0
2022-01-14 00:54:02;-3,09;1031,02;7;0;0
2022-01-14 00:55:01;-2,98;1031,04;7;0;0
2022-01-14 00:56:01;-2,8;1031;7;0;0
2022-01-14 00:57:01;-2,9;1030,98;7;0;0
2022-01-14 00:58:01;-3,02;1030,98;7;0;0
2022-01-14 00:59:02;-2,92;1031,05;7;0;0
2022-01-14 01:00:01;-2,86;1031,1;6;0;0
2022-01-14 01:01:01;-2,8;1031,05;7;0;0
2022-01-14 01:02:01;-2,89;1031,08;7;0;0
2022-01-14 01:03:01;-2,94;1031,06;6;0;0
2022-01-14 01:04:01;-2,83;1031,01;7;0;0
2022-01-14 01:05:01;-2,81;1031;7;0;0
2022-01-14 01:06:01;-2,84;1031,02;6;0;0
2022-01-14 01:07:01;-2,84;1031,06;6;0;0
2022-01-14 01:08:01;-2,97;1030,99;6;0;0
2022-01-14 01:09:01;-3,01;1031,02;7;0;0
2022-01-14 01:10:01;-2,85;1031,07;7;0;0
2022-01-14 01:11:01;-3,12;1030,98;7;0;0
2022-01-14 01:12:01;-2,99;1030,94;6;0;0
2022-01-14 01:13:01;-2,8;1031;7;0;0
2022-01-14 01:14:01;-2,86;1030,87;7;0;0
2022-01-14 01:15:02;-2,64;1030,89;7;0;0
2022-01-14 01:16:01;-2,81;1030,92;7;0;0
2022-01-14 01:17:01;-2,53;1030,88;7;0;0
2022-01-14 01:18:02;-2,78;1030,91;6;0;0
2022-01-14 01:19:01;-2,65;1030,95;6;0;0
2022-01-14 01:20:01;-2,67;1030,87;7;0;0
2022-01-14 01:21:01;-2,87;1030,89;7;0;0
2022-01-14 01:22:01;-2,81;1030,86;6;0;0
2022-01-14 01:23:01;-2,64;1030,93;7;0;0
2022-01-14 01:24:01;-2,84;1030,97;6;0;0
2022-01-14 01:25:01;-2,79;1030,95;7;0;0
2022-01-14 01:26:01;-2,65;1030,83;7;0;0
2022-01-14 01:27:02;-2,51;1030,72;8;0;0
2022-01-14 01:28:01;-2,81;1030,8;7;0;0
2022-01-14 01:29:01;-2,78;1030,8;7;0;0
2022-01-14 01:30:01;-2,93;1030,82;7;0;0
2022-01-14 01:31:02;-2,89;1030,92;6;0;0
2022-01-14 01:32:01;-2,86;1030,92;6;0;0
2022-01-14 01:33:01;-3,05;1030,89;7;0;0
2022-01-14 01:34:01;-2,94;1030,91;7;0;0
2022-01-14 01:35:02;-2,88;1030,84;6;0;0
2022-01-14 01:36:01;-3,06;1030,84;6;0;0
2022-01-14 01:37:01;-3,04;1030,85;7;0;0
2022-01-14 01:38:01;-2,93;1030,83;7;0;0
2022-01-14 01:39:01;-2,9;1030,73;7;0;0
2022-01-14 01:40:02;-2,96;1030,77;6;0;0
2022-01-14 01:41:01;-2,89;1030,79;6;0;0
2022-01-14 01:42:01;-3,08;1030,83;7;0;0
2022-01-14 01:43:01;-3,04;1030,81;6;0;0
2022-01-14 01:44:01;-3,11;1030,84;7;0;0
2022-01-14 01:45:01;-2,96;1030,83;7;0;0
2022-01-14 01:46:01;-3,04;1030,9;6;0;0
2022-01-14 01:47:01;-3,21;1030,85;6;0;0
2022-01-14 01:48:01;-3,09;1030,86;7;0;0
2022-01-14 01:49:01;-3,11;1030,92;7;0;0
2022-01-14 01:50:02;-3,17;1030,92;7;0;0
2022-01-14 01:51:01;-3,24;1030,9;6;0;0
2022-01-14 01:52:01;-3,32;1030,9;6;0;0
2022-01-14 01:53:01;-3,18;1030,84;6;0;0
2022-01-14 01:54:02;-3,16;1030,87;7;0;0
2022-01-14 01:55:01;-3,14;1030,83;7;0;0
2022-01-14 01:56:01;-3,26;1030,78;6;0;0
2022-01-14 01:57:01;-3,15;1030,86;7;0;0
2022-01-14 01:58:01;-3,12;1030,75;7;0;0
2022-01-14 01:59:01;-3,19;1030,78;7;0;0
2022-01-14 02:00:01;-3,25;1030,81;7;0;0
2022-01-14 02:01:01;-3,41;1030,73;6;0;0
2022-01-14 02:02:01;-3,34;1030,61;6;0;0
2022-01-14 02:03:02;-3,22;1030,54;6;0;0
2022-01-14 02:04:01;-3,23;1030,52;6;0;0
2022-01-14 02:05:01;-3,2;1030,49;7;0;0
2022-01-14 02:06:01;-3,2;1030,52;7;0;0
2022-01-14 02:07:02;-3,15;1030,48;7;0;0
2022-01-14 02:08:01;-3,42;1030,44;6;0;0
2022-01-14 02:09:01;-3,47;1030,41;7;0;0
2022-01-14 02:10:01;-3,44;1030,47;6;0;0
2022-01-14 02:11:01;-3,44;1030,5;5;0;0
2022-01-14 02:12:01;-3,42;1030,57;7;0;0
2022-01-14 02:13:02;-3,41;1030,48;7;0;0
2022-01-14 02:14:01;-3,41;1030,41;6;0;0
2022-01-14 02:15:01;-3,63;1030,39;7;0;0
2022-01-14 02:16:01;-3,61;1030,34;7;0;0
2022-01-14 02:17:01;-3,58;1030,43;6;0;0
2022-01-14 02:18:02;-3,52;1030,46;7;0;0
2022-01-14 02:19:01;-3,54;1030,43;6;0;0
2022-01-14 02:20:01;-3,59;1030,38;6;0;0
2022-01-14 02:21:02;-3,51;1030,41;7;0;0
2022-01-14 02:22:01;-3,43;1030,43;6;0;0
2022-01-14 02:23:01;-3,45;1030,47;6;0;0
2022-01-14 02:24:01;-3,46;1030,43;6;0;0
2022-01-14 02:25:01;-3,24;1030,39;6;0;0
2022-01-14 02:26:01;-3,37;1030,33;5;0;0
2022-01-14 02:27:01;-3,39;1030,26;6;0;0
2022-01-14 02:28:01;-3,44;1030,27;7;0;0
2022-01-14 02:29:01;-3,28;1030,27;6;0;0
2022-01-14 02:30:01;-3,32;1030,3;6;0;0
2022-01-14 02:31:01;-3,24;1030,31;7;0;0
2022-01-14 02:32:01;-3,37;1030,31;8;0;0
2022-01-14 02:33:01;-3,46;1030,33;6;0;0
2022-01-14 02:34:01;-3,46;1030,32;7;0;0
2022-01-14 02:35:02;-3,36;1030,31;6;0;0
2022-01-14 02:36:01;-3,47;1030,31;6;0;0
2022-01-14 02:37:01;-3,58;1030,3;6;0;0
2022-01-14 02:38:01;-3,37;1030,3;6;0;0
2022-01-14 02:39:02;-3,51;1030,27;6;0;0
2022-01-14 02:40:01;-3,3;1030,23;7;0;0
2022-01-14 02:41:01;-3,46;1030,28;6;0;0
2022-01-14 02:42:01;-3,33;1030,29;6;0;0
2022-01-14 02:43:02;-3,5;1030,31;7;0;0
2022-01-14 02:44:01;-3,36;1030,29;7;0;0
2022-01-14 02:45:01;-3,47;1030,28;6;0;0
2022-01-14 02:46:01;-3,52;1030,32;6;0;0
2022-01-14 02:47:01;-3,44;1030,32;6;0;0
2022-01-14 02:48:01;-3,47;1030,24;7;0;0
2022-01-14 02:49:01;-3,34;1030,27;6;0;0
2022-01-14 02:50:01;-3,32;1030,26;6;0;0
2022-01-14 02:51:02;-3,49;1030,18;6;0;0
2022-01-14 02:52:01;-3,31;1030,22;5;0;0
2022-01-14 02:53:01;-3,5;1030,23;6;0;0
2022-01-14 02:54:01;-3,31;1030,23;6;0;0
2022-01-14 02:55:01;-3,36;1030,24;5;0;0
2022-01-14 02:56:01;-3,36;1030,26;7;0;0
2022-01-14 02:57:01;-3,33;1030,2;7;0;0
2022-01-14 02:58:01;-3,49;1030,24;6;0;0
2022-01-14 02:59:01;-3,33;1030,25;6;0;0
2022-01-14 03:00:01;-3,27;1030,22;6;0;0
2022-01-14 03:01:01;-3,21;1030,23;7;0;0
2022-01-14 03:02:01;-3,35;1030,25;6;0;0
2022-01-14 03:03:02;-3,46;1030,15;6;0;0
2022-01-14 03:04:01;-3,37;1030,16;7;0;0
2022-01-14 03:05:01;-3,37;1030,14;7;0;0
2022-01-14 03:06:01;-3,29;1030,14;6;0;0
2022-01-14 03:07:01;-3,43;1030,25;6;0;0
2022-01-14 03:08:01;-3,44;1030,26;7;0;0
2022-01-14 03:09:02;-3,4;1030,25;6;0;0
2022-01-14 03:10:01;-3,45;1030,27;7;0;0
2022-01-14 03:11:01;-3,38;1030,25;6;0;0
2022-01-14 03:12:01;-3,41;1030,26;6;0;0
2022-01-14 03:13:01;-3,43;1030,35;7;0;0
2022-01-14 03:14:01;-3,41;1030,31;7;0;0
2022-01-14 03:15:01;-3,52;1030,29;6;0;0
2022-01-14 03:16:01;-3,49;1030,23;6;0;0
2022-01-14 03:17:02;-3,35;1030,27;7;0;0
2022-01-14 03:18:01;-3,36;1030,3;7;0;0
2022-01-14 03:19:01;-3,48;1030,29;7;0;0
2022-01-14 03:20:01;-3,43;1030,28;6;0;0
2022-01-14 03:21:01;-3,4;1030,32;7;0;0
2022-01-14 03:22:01;-3,29;1030,29;6;0;0
2022-01-14 03:23:01;-3,16;1030,32;7;0;0
2022-01-14 03:24:01;-3,34;1030,31;6;0;0
2022-01-14 03:25:01;-3,44;1030,31;6;0;0
2022-01-14 03:26:01;-3,4;1030,25;6;0;0
2022-01-14 03:27:01;-3,38;1030,28;6;0;0
2022-01-14 03:28:01;-3,37;1030,28;6;0;0
2022-01-14 03:29:01;-3,35;1030,3;6;0;0
2022-01-14 03:30:01;-3,41;1030,26;6;0;0
2022-01-14 03:31:01;-3,5;1030,27;6;0;0
2022-01-14 03:32:01;-3,39;1030,27;6;0;0
2022-01-14 03:33:01;-3,37;1030,25;5;0;0
2022-01-14 03:34:01;-3,22;1030,27;6;0;0
2022-01-14 03:35:01;-3,41;1030,18;6;0;0
2022-01-14 03:36:02;-3,24;1030,24;6;0;0
2022-01-14 03:37:01;-3,12;1030,26;7;0;0
2022-01-14 03:38:01;-3,31;1030,22;6;0;0
2022-01-14 03:39:01;-3,4;1030,23;6;0;0
2022-01-14 03:40:01;-3,38;1030,2;6;0;0
2022-01-14 03:41:01;-3,27;1030,14;6;0;0
2022-01-14 03:42:01;-3,32;1030,21;5;0;0
2022-01-14 03:43:02;-3,3;1030,21;6;0;0
2022-01-14 03:44:01;-3,4;1030,2;7;0;0
2022-01-14 03:45:01;-3,27;1030,22;7;0;0
2022-01-14 03:46:01;-3,43;1030,28;6;0;0
2022-01-14 03:47:01;-3,4;1030,23;6;0;0
2022-01-14 03:48:01;-3,35;1030,25;6;0;0
2022-01-14 03:49:01;-3,34;1030,25;6;0;0
2022-01-14 03:50:01;-3,21;1030,2;6;0;0
2022-01-14 03:51:01;-3,24;1030,19;6;0;0
2022-01-14 03:52:01;-3,24;1030,16;6;0;0
2022-01-14 03:53:01;-3,26;1030,21;6;0;0
2022-01-14 03:54:01;-3,41;1030,2;7;0;0
2022-01-14 03:55:01;-3,16;1030,19;6;0;0
2022-01-14 03:56:01;-3,3;1030,18;6;0;0
2022-01-14 03:57:01;-3,38;1030,18;7;0;0
2022-01-14 03:58:01;-3,15;1030,16;6;0;0
2022-01-14 03:59:01;-3,32;1030,22;6;0;0
2022-01-14 04:00:01;-3,26;1030,19;6;0;0
2022-01-14 04:01:01;-3,23;1030,17;6;0;0
2022-01-14 04:02:01;-3,28;1030,19;7;0;0
2022-01-14 04:03:01;-3,36;1030,16;6;0;0
2022-01-14 04:04:02;-3,36;1030,12;6;0;0
2022-01-14 04:05:01;-3,46;1030,16;6;0;0
2022-01-14 04:06:01;-3,43;1030,09;6;0;0
2022-01-14 04:07:01;-3,54;1030,13;6;0;0
2022-01-14 04:08:01;-3,37;1030,1;6;0;0
2022-01-14 04:09:02;-3,34;1030,1;6;0;0
2022-01-14 04:10:01;-3,27;1030,2;6;0;0
2022-01-14 04:11:01;-3,3;1030,14;7;0;0
2022-01-14 04:12:01;-3,33;1030,18;7;0;0
2022-01-14 04:13:01;-3,62;1030,12;6;0;0
2022-01-14 04:14:01;-3,53;1030,06;7;0;0
2022-01-14 04:15:01;-3,49;1029,98;6;0;0
2022-01-14 04:16:01;-3,58;1029,98;6;0;0
2022-01-14 04:17:01;-3,58;1030,11;6;0;0
2022-01-14 04:18:01;-3,65;1030,13;5;0;0
2022-01-14 04:19:01;-3,67;1030,18;6;0;0
2022-01-14 04:20:01;-3,75;1030,1;5;0;0
2022-01-14 04:21:01;-3,35;1030,08;7;0;0
2022-01-14 04:22:01;-3,55;1030,1;6;0;0
2022-01-14 04:23:01;-3,55;1030,17;6;0;0
2022-01-14 04:24:01;-3,65;1030,16;6;0;0
2022-01-14 04:25:01;-3,43;1030,15;7;0;0
2022-01-14 04:26:01;-3,46;1030,05;6;0;0
2022-01-14 04:27:01;-3,83;1030,02;5;0;0
2022-01-14 04:28:01;-3,72;1030,03;6;0;0
2022-01-14 04:29:01;-3,66;1030,02;6;0;0
2022-01-14 04:30:01;-3,44;1030;6;0;0
2022-01-14 04:31:01;-3,6;1030,04;6;0;0
2022-01-14 04:32:02;-3,57;1029,97;6;0;0
2022-01-14 04:33:01;-3,45;1030,04;6;0;0
2022-01-14 04:34:01;-3,35;1030,04;7;0;0
2022-01-14 04:35:01;-3,39;1030,06;7;0;0
2022-01-14 04:36:01;-3,59;1030,06;6;0;0
2022-01-14 04:37:01;-3,47;1030,07;5;0;0
2022-01-14 04:38:01;-3,47;1030,04;6;0;0
2022-01-14 04:39:01;-3,45;1030,05;7;0;0
2022-01-14 04:40:01;-3,4;1030,04;6;0;0
2022-01-14 04:41:01;-3,37;1030,04;6;0;0
2022-01-14 04:42:01;-3,47;1030;7;0;0
2022-01-14 04:43:01;-3,36;1030,01;7;0;0
2022-01-14 04:44:01;-3,54;1030,09;6;0;0
2022-01-14 04:45:01;-3,42;1030,12;6;0;0
2022-01-14 04:46:01;-3,37;1030,12;6;0;0
2022-01-14 04:47:01;-3,39;1030,13;6;0;0
2022-01-14 04:48:01;-3,38;1030,07;6;0;0
2022-01-14 04:49:01;-3,43;1030,11;7;0;0
2022-01-14 04:50:01;-3,32;1030,11;7;0;0
2022-01-14 04:51:01;-3,32;1030,13;7;0;0
2022-01-14 04:52:01;-3,37;1030,15;6;0;0
2022-01-14 04:53:01;-3,49;1030,08;7;0;0
2022-01-14 04:54:01;-3,49;1030,04;6;0;0
2022-01-14 04:55:01;-3,45;1030,1;6;0;0
2022-01-14 04:56:01;-3,59;1030,06;6;0;0
2022-01-14 04:57:01;-3,65;1030,08;6;0;0
2022-01-14 04:58:01;-3,47;1030,09;6;0;0
2022-01-14 04:59:01;-3,64;1030,05;6;0;0
2022-01-14 05:00:01;-3,48;1030;7;0;0
2022-01-14 05:01:02;-3,59;1030,06;6;0;0
2022-01-14 05:02:01;-3,43;1030,07;6;0;0
2022-01-14 05:03:01;-3,4;1030,02;6;0;0
2022-01-14 05:04:01;-3,45;1030,05;6;0;0
2022-01-14 05:05:01;-3,39;1030,05;6;0;0
2022-01-14 05:06:01;-3,53;1030,06;4;0;0
2022-01-14 05:07:01;-3,38;1030,07;6;0;0
2022-01-14 05:08:01;-3,41;1030,04;7;0;0
2022-01-14 05:09:01;-3,33;1030,09;7;0;0
2022-01-14 05:10:01;-3,44;1030,09;6;0;0
2022-01-14 05:11:01;-3,22;1030,11;6;0;0
2022-01-14 05:12:02;-3,32;1030;7;0;0
2022-01-14 05:13:01;-3,32;1030,02;7;0;0
2022-01-14 05:14:01;-3,39;1030;5;0;0
2022-01-14 05:15:01;-3,4;1029,99;6;0;0
2022-01-14 05:16:01;-3,35;1030,04;6;0;0
2022-01-14 05:17:01;-3,35;1030,06;7;0;0
2022-01-14 05:18:01;-3,37;1030,01;6;0;0
2022-01-14 05:19:01;-3,58;1029,95;5;0;0
2022-01-14 05:20:01;-3,16;1030,06;6;0;0
2022-01-14 05:21:01;-2,99;1029,98;6;0;0
2022-01-14 05:22:01;-3,19;1030;5;0;0
2022-01-14 05:23:01;-3,27;1029,96;5;0;0
2022-01-14 05:24:02;-3,11;1029,92;6;0;0
2022-01-14 05:25:01;-3,03;1029,98;7;0;0
2022-01-14 05:26:01;-3,06;1029,92;5;0;0
2022-01-14 05:27:01;-3,01;1029,93;6;0;0
2022-01-14 05:28:01;-3,02;1029,93;6;0;0
2022-01-14 05:29:02;-2,99;1029,92;6;0;0
2022-01-14 05:30:01;-3,05;1029,98;6;0;0
2022-01-14 05:31:01;-2,95;1030,01;6;0;0
2022-01-14 05:32:01;-3,21;1029,98;6;0;0
2022-01-14 05:33:01;-3;1029,97;6;0;0
2022-01-14 05:34:02;-3,24;1029,95;6;0;0
2022-01-14 05:35:01;-3,14;1029,83;6;0;0
2022-01-14 05:36:01;-3,06;1029,84;5;0;0
2022-01-14 05:37:01;-2,98;1029,86;6;0;0
2022-01-14 05:38:01;-2,93;1029,86;5;0;0
2022-01-14 05:39:01;-2,89;1029,87;6;0;0
2022-01-14 05:40:01;-2,82;1029,79;5;0;0
2022-01-14 05:41:01;-2,83;1029,82;5;0;0
2022-01-14 05:42:01;-3,01;1029,8;6;0;0
2022-01-14 05:43:02;-2,72;1029,86;6;0;0
2022-01-14 05:44:01;-2,95;1029,87;6;0;0
2022-01-14 05:45:01;-2,76;1029,71;6;0;0
2022-01-14 05:46:01;-2,79;1029,69;6;0;0
2022-01-14 05:47:02;-2,87;1029,68;5;0;0
2022-01-14 05:48:01;-2,8;1029,68;6;0;0
2022-01-14 05:49:01;-2,94;1029,68;5;0;0
2022-01-14 05:50:01;-2,91;1029,71;6;0;0
2022-01-14 05:51:01;-2,9;1029,66;6;0;0
2022-01-14 05:52:02;-2,82;1029,67;5;0;0
2022-01-14 05:53:01;-2,81;1029,73;6;0;0
2022-01-14 05:54:01;-2,74;1029,7;6;0;0
2022-01-14 05:55:01;-2,65;1029,65;7;0;0
2022-01-14 05:56:01;-2,88;1029,62;6;0;0
2022-01-14 05:57:01;-2,53;1029,54;6;0;0
2022-01-14 05:58:01;-2,78;1029,58;6;0;0
2022-01-14 05:59:01;-2,76;1029,47;6;0;0
2022-01-14 06:00:01;-2,59;1029,48;5;0;0
2022-01-14 06:01:02;-2,77;1029,45;6;0;0
2022-01-14 06:02:01;-2,67;1029,43;5;0;0
2022-01-14 06:03:01;-2,74;1029,45;6;0;0
2022-01-14 06:04:01;-2,6;1029,48;6;0;0
2022-01-14 06:05:01;-2,67;1029,45;5;0;0
2022-01-14 06:06:01;-2,94;1029,44;7;0;0
2022-01-14 06:07:01;-2,94;1029,43;6;0;0
2022-01-14 06:08:01;-2,79;1029,47;6;0;0
2022-01-14 06:09:01;-2,99;1029,43;6;0;0
2022-01-14 06:10:01;-2,78;1029,41;6;0;0
2022-01-14 06:11:02;-2,88;1029,43;6;0;0
2022-01-14 06:12:01;-3;1029,45;6;0;0
2022-01-14 06:13:01;-2,62;1029,47;7;0;0
2022-01-14 06:14:01;-2,77;1029,41;6;0;0
2022-01-14 06:15:01;-2,81;1029,43;5;0;0
2022-01-14 06:16:01;-2,92;1029,45;6;0;0
2022-01-14 06:17:02;-2,54;1029,44;5;0;0
2022-01-14 06:18:01;-2,54;1029,44;6;0;0
2022-01-14 06:19:01;-2,46;1029,45;7;0;0
2022-01-14 06:20:01;-2,54;1029,39;6;0;0
2022-01-14 06:21:01;-2,54;1029,38;7;0;0
2022-01-14 06:22:01;-2,79;1029,37;6;0;0
2022-01-14 06:23:01;-2,82;1029,39;6;0;0
2022-01-14 06:24:01;-2,72;1029,37;7;0;0
2022-01-14 06:25:01;-2,69;1029,38;7;0;0
2022-01-14 06:26:01;-2,65;1029,38;6;0;0
2022-01-14 06:27:01;-2,57;1029,37;6;0;0
2022-01-14 06:28:01;-2,78;1029,36;6;0;0
2022-01-14 06:29:02;-2,68;1029,37;7;0;0
2022-01-14 06:30:01;-2,52;1029,4;7;0;0
2022-01-14 06:31:01;-2,68;1029,37;7;0;0
2022-01-14 06:32:01;-2,76;1029,36;5;0;0
2022-01-14 06:33:01;-2,74;1029,35;5;0;0
2022-01-14 06:34:01;-2,6;1029,36;6;0;0
2022-01-14 06:35:01;-2,34;1029,44;6;0;0
2022-01-14 06:36:01;-2,59;1029,41;5;0;0
2022-01-14 06:37:02;-2,44;1029,43;6;0;0
2022-01-14 06:38:01;-2,31;1029,42;6;0;0
2022-01-14 06:39:01;-2,44;1029,46;6;0;0
2022-01-14 06:40:01;-2,42;1029,48;7;0;0
2022-01-14 06:41:01;-2,47;1029,59;6;0;0
2022-01-14 06:42:01;-2,42;1029,6;5;0;0
2022-01-14 06:43:01;-2,49;1029,55;5;0;0
2022-01-14 06:44:01;-2,63;1029,48;5;0;0
2022-01-14 06:45:01;-2,49;1029,52;5;0;0
2022-01-14 06:46:01;-2,59;1029,54;5;0;0
2022-01-14 06:47:01;-2,5;1029,62;6;0;0
2022-01-14 06:48:01;-2,57;1029,58;5;0;0
2022-01-14 06:49:01;-2,56;1029,57;6;0;0
2022-01-14 06:50:01;-2,69;1029,57;4;0;0
2022-01-14 06:51:01;-2,74;1029,63;6;0;0
2022-01-14 06:52:01;-2,74;1029,6;6;0;0
2022-01-14 06:53:01;-2,57;1029,61;6;0;0
2022-01-14 06:54:01;-2,76;1029,64;5;0;0
2022-01-14 06:55:02;-2,79;1029,56;6;0;0
2022-01-14 06:56:01;-2,74;1029,5;6;0;0
2022-01-14 06:57:01;-2,78;1029,52;5;0;0
2022-01-14 06:58:01;-2,6;1029,53;5;0;0
2022-01-14 06:59:01;-2,73;1029,57;6;0;0
2022-01-14 07:00:01;-2,65;1029,66;5;0;0
2022-01-14 07:01:01;-2,84;1029,67;6;0;0
2022-01-14 07:02:01;-2,76;1029,63;7;0;0
2022-01-14 07:03:02;-2,78;1029,6;7;0;0
2022-01-14 07:04:01;-2,77;1029,57;7;0;0
2022-01-14 07:05:01;-2,79;1029,7;5;0;0
2022-01-14 07:06:01;-2,63;1029,63;7;0;0
2022-01-14 07:07:01;-2,85;1029,55;6;0;0
2022-01-14 07:08:01;-2,7;1029,52;6;0;0
2022-01-14 07:09:01;-2,8;1029,5;7;0;0
2022-01-14 07:10:01;-2,85;1029,48;6;0;0
2022-01-14 07:11:01;-2,88;1029,49;7;0;0
2022-01-14 07:12:01;-2,9;1029,56;6;0;0
2022-01-14 07:13:01;-2,64;1029,53;8;0;0
2022-01-14 07:14:01;-2,96;1029,45;8;0;0
2022-01-14 07:15:01;-3,02;1029,46;7;0;0
2022-01-14 07:16:02;-2,99;1029,54;8;0;0
2022-01-14 07:17:01;-3,07;1029,55;8;0;0
2022-01-14 07:18:01;-3,06;1029,46;8;0;0
2022-01-14 07:19:01;-2,99;1029,42;8;0;0
2022-01-14 07:20:01;-3,07;1029,46;9;0;0
2022-01-14 07:21:02;-3,09;1029,43;10;0;0
2022-01-14 07:22:01;-2,98;1029,5;12;0;0
2022-01-14 07:23:01;-2,91;1029,51;13;0;0
2022-01-14 07:24:01;-2,88;1029,54;15;0;0
2022-01-14 07:25:01;-2,99;1029,55;18;0;0
2022-01-14 07:26:01;-3,02;1029,58;22;0;0
2022-01-14 07:27:01;-3,02;1029,66;26;0;0
2022-01-14 07:28:01;-3,08;1029,69;30;0;0
2022-01-14 07:29:01;-2,89;1029,66;36;0;0
2022-01-14 07:30:01;-2,99;1029,57;44;0;0
2022-01-14 07:31:01;-2,93;1029,54;52;0;0
2022-01-14 07:32:01;-3,14;1029,54;60;0;0
2022-01-14 07:33:01;-3,21;1029,51;69;0;0
2022-01-14 07:34:01;-3,04;1029,51;80;0;0
2022-01-14 07:35:01;-3,1;1029,44;91;0;0
2022-01-14 07:36:01;-3,17;1029,42;103;0;0
2022-01-14 07:37:01;-2,98;1029,44;117;0;0
2022-01-14 07:38:01;-3,07;1029,49;130;0;0
2022-01-14 07:39:01;-3,14;1029,51;146;0;0
2022-01-14 07:40:01;-3,17;1029,48;163;0;0
2022-01-14 07:41:01;-3,1;1029,43;180;0;0
2022-01-14 07:42:01;-3,04;1029,41;198;0;0
2022-01-14 07:43:01;-3;1029,41;218;0;0
2022-01-14 07:44:01;-3,04;1029,39;238;0;0
2022-01-14 07:45:02;-3,03;1029,4;258;0;0
2022-01-14 07:46:01;-3,06;1029,39;280;0;0
2022-01-14 07:47:02;-3,07;1029,39;300;0;0
2022-01-14 07:48:01;-3,15;1029,37;323;0;0
2022-01-14 07:49:01;-2,89;1029,36;343;0;0
2022-01-14 07:50:01;-2,9;1029,36;367;0;0
2022-01-14 07:51:02;-2,66;1029,37;389;0;0
2022-01-14 07:52:01;-2,58;1029,36;410;0;0
2022-01-14 07:53:01;-2,54;1029,37;431;0;0
2022-01-14 07:54:01;-2,65;1029,36;453;0;0
2022-01-14 07:55:01;-2,73;1029,36;475;0;0
2022-01-14 07:56:01;-2,78;1029,35;495;0;0
2022-01-14 07:57:01;-2,91;1029,33;515;0;0
2022-01-14 07:58:01;-2,83;1029,33;536;0;0
2022-01-14 07:59:01;-2,86;1029,33;555;0;0
2022-01-14 08:00:01;-2,74;1029,29;576;0;0
2022-01-14 08:01:01;-2,76;1029,29;596;0;0
2022-01-14 08:02:01;-2,69;1029,31;617;0;0
2022-01-14 08:03:01;-2,71;1029,33;638;0;0
2022-01-14 08:04:01;-2,89;1029,34;656;0;0
2022-01-14 08:05:02;-2,89;1029,34;675;0;0
2022-01-14 08:06:01;-2,83;1029,32;691;0;0
2022-01-14 08:07:01;-2,76;1029,25;708;0;0
2022-01-14 08:08:01;-2,74;1029,24;722;0;0
2022-01-14 08:09:01;-2,68;1029,27;738;0;0
2022-01-14 08:10:01;-2,56;1029,3;753;0;0
2022-01-14 08:11:01;-2,68;1029,3;767;0;0
2022-01-14 08:12:01;-2,51;1029,31;780;0;0
2022-01-14 08:13:01;-2,56;1029,32;794;0;0
2022-01-14 08:14:01;-2,62;1029,34;808;0;0
2022-01-14 08:15:01;-2,61;1029,32;821;0;0
2022-01-14 08:16:02;-2,57;1029,34;833;0;0
2022-01-14 08:17:01;-2,64;1029,32;845;0;0
2022-01-14 08:18:01;-2,62;1029,3;856;0;0
2022-01-14 08:19:01;-2,75;1029,29;868;0;0
2022-01-14 08:20:01;-2,73;1029,31;879;0;0
2022-01-14 08:21:02;-2,5;1029,31;891;0;0
2022-01-14 08:22:01;-2,57;1029,3;901;0;0
2022-01-14 08:23:01;-2,76;1029,26;912;0;0
2022-01-14 08:24:01;-2,78;1029,27;922;0;0
2022-01-14 08:25:01;-2,52;1029,26;932;0;0
2022-01-14 08:26:02;-2,62;1029,24;940;0;0
2022-01-14 08:27:01;-2,59;1029,25;948;0;0
2022-01-14 08:28:01;-2,63;1029,15;956;0;0
2022-01-14 08:29:01;-2,78;1029,13;964;0;0
2022-01-14 08:30:01;-2,56;1029,01;973;0;0
2022-01-14 08:31:01;-2,66;1028,99;988;0;0
2022-01-14 08:32:01;-2,34;1028,96;1016;0;0
2022-01-14 08:33:01;-2,58;1029,01;1064;0;0
2022-01-14 08:34:01;-2,49;1029,01;1120;0;0
2022-01-14 08:35:01;-2,69;1028,99;1163;0;0
2022-01-14 08:36:01;-2,58;1028,98;1182;0;0
2022-01-14 08:37:01;-2,51;1028,97;1191;0;0
2022-01-14 08:38:01;-2,41;1029,01;1199;0;0
2022-01-14 08:39:01;-2,41;1029;1208;0;0
2022-01-14 08:40:02;-2,57;1029,03;1215;0;0
2022-01-14 08:41:01;-2,56;1028,93;1223;0;0
2022-01-14 08:42:01;-2,49;1029;1232;0;0
2022-01-14 08:43:01;-2,32;1029,06;1241;0;0
2022-01-14 08:44:01;-2,42;1029;1247;0;0
2022-01-14 08:45:01;-2,28;1029,01;1252;0;0
2022-01-14 08:46:01;-2,42;1028,93;1259;0;0
2022-01-14 08:47:01;-2,56;1028,94;1265;0;0
2022-01-14 08:48:01;-2,28;1028,98;1272;0;0
2022-01-14 08:49:01;-2,27;1028,94;1279;0;0
2022-01-14 08:50:02;-2,35;1028,97;1287;0;0
2022-01-14 08:51:01;-2,35;1028,89;1291;0;0
2022-01-14 08:52:01;-2,23;1028,97;1297;0;0
2022-01-14 08:53:01;-2,38;1028,9;1303;0;0
2022-01-14 08:54:02;-2,16;1028,91;1308;0;0
2022-01-14 08:55:01;-2,23;1028,87;1314;0;0
2022-01-14 08:56:01;-2,34;1028,84;1320;0;0
2022-01-14 08:57:01;-2,17;1028,87;1326;0;0
2022-01-14 08:58:01;-2,07;1028,81;1332;0;0
2022-01-14 08:59:01;-2,03;1028,84;1337;0;0
2022-01-14 09:00:01;-2,02;1028,87;1344;0;0
2022-01-14 09:01:01;-2,08;1028,86;1348;0;0
2022-01-14 09:02:01;-2,09;1028,87;1352;0;0
2022-01-14 09:03:01;-2,03;1028,84;1358;0;0
2022-01-14 09:04:01;-2,12;1028,77;1365;0;0
2022-01-14 09:05:02;-1,97;1028,76;1370;0;0
2022-01-14 09:06:01;-1,91;1028,61;1374;0;0
2022-01-14 09:07:01;-2,07;1028,7;1380;0;0
2022-01-14 09:08:01;-1,99;1028,66;1386;0;0
2022-01-14 09:09:02;-2,01;1028,71;1400;0;0
2022-01-14 09:10:01;-1,96;1028,76;1426;0;0
2022-01-14 09:11:01;-2,04;1028,75;1435;0;0
2022-01-14 09:12:01;-1,89;1028,77;1441;0;0
2022-01-14 09:13:01;-1,88;1028,78;1445;0;0
2022-01-14 09:14:01;-1,85;1028,74;1450;0;0
2022-01-14 09:15:01;-1,97;1028,62;1453;0;0
2022-01-14 09:16:02;-1,75;1028,72;1458;0;0
2022-01-14 09:17:01;-1,79;1028,63;1462;0;0
2022-01-14 09:18:01;-1,68;1028,67;1466;0;0
2022-01-14 09:19:01;-1,82;1028,7;1469;0;0
2022-01-14 09:20:01;-1,79;1028,79;1473;0;0
2022-01-14 09:21:01;-1,76;1028,71;1478;0;0
2022-01-14 09:22:01;-1,62;1028,78;1481;0;0
2022-01-14 09:23:01;-1,61;1028,82;1484;0;0
2022-01-14 09:24:01;-1,69;1028,72;1488;0;0
2022-01-14 09:25:01;-1,7;1028,65;1490;0;0
2022-01-14 09:26:01;-1,65;1028,63;1492;0;0
2022-01-14 09:27:01;-1,65;1028,65;1496;0;0
2022-01-14 09:28:01;-1,45;1028,61;1498;0;0
2022-01-14 09:29:01;-1,53;1028,64;1504;0;0
2022-01-14 09:30:02;-1,36;1028,63;1505;0;0
2022-01-14 09:31:01;-1,31;1028,67;1507;0;0
2022-01-14 09:32:01;-1,27;1028,74;1512;0;0
2022-01-14 09:33:01;-1,28;1028,74;1513;0;0
2022-01-14 09:34:01;-1,38;1028,74;1517;0;0
2022-01-14 09:35:02;-1,23;1028,8;1521;0;0
2022-01-14 09:36:01;-1,23;1028,8;1524;0;0
2022-01-14 09:37:01;-1,15;1028,6;1528;0;0
2022-01-14 09:38:01;-1,05;1028,68;1530;0;0
2022-01-14 09:39:01;-1,14;1028,63;1534;0;0
2022-01-14 09:40:01;-1,07;1028,73;1537;0;0
2022-01-14 09:41:01;-1,09;1028,7;1538;0;0
2022-01-14 09:42:01;-1,02;1028,68;1543;0;0
2022-01-14 09:43:01;-1,14;1028,62;1545;0;0
2022-01-14 09:44:01;-1,06;1028,69;1549;0;0
2022-01-14 09:45:02;-1;1028,63;1553;0;0
2022-01-14 09:46:01;-0,99;1028,65;1554;0;0
2022-01-14 09:47:01;-0,93;1028,7;1556;0;0
2022-01-14 09:48:01;-0,88;1028,54;1560;0;0
2022-01-14 09:49:01;-0,72;1028,46;1563;0;0
2022-01-14 09:50:01;-0,83;1028,48;1565;0;0
2022-01-14 09:51:01;-0,89;1028,44;1568;0;0